Twin Island FAA Web Cam AK US FAA-ALASKA current weather conditions

sailwx.info

Wind from 332 at 9 knots

Air temperature 14.2° C
Dewpoint 9.8° C

Last reported at 2020-Aug-12 04:50 UTC.
Time now 2020-Aug-12 06:48 UTC

Location: N 55°23' W 131°16'.
View on Google Maps.

See reports from other nearby stations

  
Tides and Currents Weather Stations Pressure Air Temp Water Temp Dewpoint Dewpoint Depression Visibility Wind Speed Wind Dir Waves Ship Positions
date/time (UTC)wind fromknots sea level pressurealtimeterstation pressurevisibilityair tempwater tempwave heightnotes
2020-Aug-12 04:50 332 9 14.2
2020-Aug-12 04:40 327 8 14.4
2020-Aug-12 04:30 158 1 14.4
2020-Aug-12 04:20 103 0 14.6
2020-Aug-12 04:10 097 0 14.5
2020-Aug-12 04:00 092 1 14.5
2020-Aug-12 03:50 085 1 14.6
2020-Aug-12 03:40 130 1 14.5
2020-Aug-12 03:30 119 1 14.5
2020-Aug-12 03:20 109 1 14.5
2020-Aug-12 03:10 118 0 14.7
2020-Aug-12 03:00 168 1 14.8
2020-Aug-12 02:50 109 1 14.9
2020-Aug-12 02:40 133 1 14.9
2020-Aug-12 02:30 297 0 15.3
2020-Aug-12 02:20 294 1 15.3
2020-Aug-12 02:10 164 0 15.1
2020-Aug-12 02:00 188 0 15.1
2020-Aug-12 01:50 197 3 14.9
2020-Aug-12 01:40 195 3 14.8
2020-Aug-12 01:30 194 4 14.7
2020-Aug-12 01:20 200 3 14.5
2020-Aug-12 01:10 200 5 14.4
2020-Aug-12 01:00 203 5 14.3
2020-Aug-12 00:50 196 8 14.2
2020-Aug-12 00:40 199 5 14.3
2020-Aug-12 00:30 202 5 14.5
2020-Aug-12 00:20 206 3 14.5
2020-Aug-12 00:10 202 6 14.5
2020-Aug-12 00:00 199 4 14.5
2020-Aug-11 23:50 200 5 14.6
2020-Aug-11 23:40 203 4 14.6
2020-Aug-11 23:30 145 6 14.1
2020-Aug-11 23:20 177 8 14.2
2020-Aug-11 23:10 180 7 14.3
2020-Aug-11 22:50 150 6 14.1
2020-Aug-11 22:40 149 4 13.9
2020-Aug-11 22:30 170 4 13.9
2020-Aug-11 22:10 180 4 13.7
2020-Aug-11 22:00 176 3 13.8
2020-Aug-11 21:50 179 3 13.8
2020-Aug-11 21:40 169 3 13.8
2020-Aug-11 21:30 166 3 13.9
2020-Aug-11 21:20 187 4 13.8
2020-Aug-11 21:10 180 3 14.0
2020-Aug-11 21:00 192 2 14.1
2020-Aug-11 20:50 210 1 14.4
2020-Aug-11 20:40 192 2 14.6
2020-Aug-11 20:30 190 3 14.3
2020-Aug-11 20:10 194 4 14.6
2020-Aug-11 20:00 304 1 14.3
2020-Aug-11 19:50 120 0 13.9
2020-Aug-11 19:40 292 3 13.8
2020-Aug-11 19:30 295 3 14.0
2020-Aug-11 19:20 289 2 13.9
2020-Aug-11 19:10 295 1 14.0
2020-Aug-11 19:00 289 1 13.7
2020-Aug-11 18:50 295 3 13.5
2020-Aug-11 18:40 299 3 13.5
2020-Aug-11 18:30 311 2 13.4
2020-Aug-11 18:20 306 3 13.2
2020-Aug-11 18:10 298 4 13.2
2020-Aug-11 18:00 308 2 13.1
2020-Aug-11 17:40 308 1 12.9
2020-Aug-11 17:30 307 3 12.8
2020-Aug-11 17:20 295 4 12.8
2020-Aug-11 17:10 292 4 12.7
2020-Aug-11 16:50 303 3 12.7
2020-Aug-11 16:40 325 3 12.4
2020-Aug-11 16:30 335 5 12.1
2020-Aug-11 16:20 355 3 12.0
2020-Aug-11 16:10 358 3 12.0
2020-Aug-11 16:00 330 4 12.3
2020-Aug-11 15:50 305 2 12.6
2020-Aug-11 15:30 316 0 12.4
2020-Aug-11 15:20 028 2 12.2
2020-Aug-11 15:10 103 1 12.3
2020-Aug-11 15:00 113 1 11.9
2020-Aug-11 14:50 081 2 11.7
2020-Aug-11 14:40 050 2 11.7
2020-Aug-11 14:30 042 2 11.7
2020-Aug-11 14:20 036 2 11.7
2020-Aug-11 14:10 029 3 11.6
2020-Aug-11 14:00 012 3 11.6
2020-Aug-11 13:50 343 2 11.6
2020-Aug-11 13:40 049 1 11.6
2020-Aug-11 13:30 002 2 11.6
2020-Aug-11 13:20 018 4 11.6
2020-Aug-11 13:10 11.6
2020-Aug-11 13:00 358 5 11.8
2020-Aug-11 04:50 183 7 12.6
2020-Aug-11 04:40 191 9 12.6
2020-Aug-11 04:30 191 9 12.7
2020-Aug-11 04:20 186 9 12.7
2020-Aug-11 04:10 174 7 12.7
2020-Aug-11 04:00 188 8 12.7
2020-Aug-11 03:50 184 8 12.7
2020-Aug-11 03:40 185 9 12.7
2020-Aug-11 03:30 190 11 12.8
2020-Aug-11 03:20 202 8 12.8
2020-Aug-11 03:10 201 8 12.8
2020-Aug-11 03:00 194 11 12.8
2020-Aug-11 02:50 203 8 12.7
2020-Aug-11 02:30 195 13 12.6
2020-Aug-11 02:20 196 11 12.9
2020-Aug-11 02:10 204 6 12.9
2020-Aug-11 02:00 198 8 13.1
2020-Aug-11 01:50 197 7 13.0
2020-Aug-11 01:40 216 5 13.0
2020-Aug-11 01:30 201 8 13.0
2020-Aug-11 01:20 205 6 13.0
2020-Aug-11 01:10 209 6 13.0
2020-Aug-11 01:00 204 5 12.9
2020-Aug-11 00:50 205 5 13.0
2020-Aug-11 00:40 202 7 12.9
2020-Aug-11 00:30 199 7 12.9
2020-Aug-11 00:20 199 8 12.8
2020-Aug-11 00:10 209 6 12.7
2020-Aug-11 00:00 203 6 13.0
2020-Aug-10 23:50 201 8 12.9
2020-Aug-10 23:40 189 8 12.7
2020-Aug-10 23:30 187 6 12.7
2020-Aug-10 23:20 165 5 12.6
2020-Aug-10 23:10 187 5 12.7
2020-Aug-10 23:00 180 8 12.8
2020-Aug-10 22:50 185 8 12.7
2020-Aug-10 22:40 195 9 12.7
2020-Aug-10 22:30 193 8 12.6
2020-Aug-10 22:20 203 6 12.5
2020-Aug-10 22:10 191 11 12.4
2020-Aug-10 22:00 196 8 12.3
2020-Aug-10 21:50 203 6 12.0
2020-Aug-10 21:40 196 7 11.9
2020-Aug-10 21:30 195 11 11.9
2020-Aug-10 21:20 205 9 11.8
2020-Aug-10 21:10 205 8 11.7
2020-Aug-10 21:00 189 4 12.1
2020-Aug-10 20:50 203 12 12.4
2020-Aug-10 20:40 186 6 12.7
2020-Aug-10 20:30 181 6 12.8
2020-Aug-10 20:20 193 4 12.7
2020-Aug-10 20:10 198 9 12.7
2020-Aug-10 20:00 197 11 13.1
2020-Aug-10 19:50 209 9 13.0
2020-Aug-10 19:40 191 11 13.1
2020-Aug-10 19:30 210 8 13.3
2020-Aug-10 19:20 211 13 13.3
2020-Aug-10 19:10 202 9 13.3
2020-Aug-10 19:00 196 12 13.4
2020-Aug-10 18:50 199 14 13.3
2020-Aug-10 18:40 205 8 13.3
2020-Aug-10 18:30 209 8 13.5
2020-Aug-10 18:20 205 8 13.4
2020-Aug-10 18:10 199 13 13.5
2020-Aug-10 18:00 206 9 13.5
2020-Aug-10 17:50 194 12 13.6
2020-Aug-10 17:40 202 5 13.8
2020-Aug-10 17:30 186 5 14.0
2020-Aug-10 17:20 197 5 13.7
2020-Aug-10 17:10 204 7 13.6
2020-Aug-10 17:00 206 9 13.9
2020-Aug-10 16:50 143 2 14.3
2020-Aug-10 16:40 220 4 13.8
2020-Aug-10 16:30 206 6 13.7
2020-Aug-10 16:20 195 3 13.6
2020-Aug-10 16:10 202 7 13.6
2020-Aug-10 16:00 184 7 13.6
2020-Aug-10 15:50 134 2 13.3
2020-Aug-10 15:40 146 2 13.4
2020-Aug-10 15:30 123 3 13.5
2020-Aug-10 15:20 307 1 13.3
2020-Aug-10 15:10 221 2 13.2
2020-Aug-10 15:00 174 4 13.3
2020-Aug-10 14:50 208 2 13.3
2020-Aug-10 14:40 183 5 13.3
2020-Aug-10 13:50 193 6 13.2
2020-Aug-10 13:40 188 6 13.2
2020-Aug-10 13:20 211 5 13.2
2020-Aug-10 13:10 201 3 13.0
2020-Aug-10 13:00 200 3 12.9